{"data":{"norad_id":59040,"intl_designator":"2024-038T","name":"STARLINK-31225","alt_names":[],"object_type":"PAYLOAD","status":"ACTIVE","operator":null,"country":"US","launch_date":"2024-02-25","launch_site_code":"AFETR","launch_vehicle":null,"mission":null,"orbit_class":"UNKNOWN","rcs_meters":null,"size_class":null,"mass_kg":null,"dimensions":null,"purposes":["comms"],"wikipedia_slug":null,"has_3d_model":false,"image_url":null,"decayed_at":null,"tle_current":{"epoch":"2026-05-24T21:09:51.331104Z","epoch_age_seconds":78407,"freshness":"FRESH","line1":"1 59040U 24038T   26144.88184411  .00001232  00000+0  54269-4 0  9994","line2":"2 59040  43.0015 312.9935 0001273 274.9326  85.1381 15.27584841126348","mean_motion":15.27584841,"eccentricity":0.0001273,"inclination_deg":43.0015,"raan_deg":312.9935,"arg_perigee_deg":274.9326,"mean_anomaly_deg":85.1381,"bstar":5.4269e-5,"rev_number":12634,"period_min":94.266449977164,"perigee_km":482.16117323767,"apogee_km":483.90802752712,"semimajor_km":6861.1716003824,"source":"CELESTRAK","updated_at":"2026-05-25T13:38:18.825908Z"}}}